This is the latest recevied weather packets stored in our database for station/object WC4PEM-10. If no packets are shown the sender has not sent any weather packets the latest 1 day(s).
| Time | Temp. | Humidity | Pressure | Rain* | Wind** | Luminosity | Snow |
|---|---|---|---|---|---|---|---|
| 1778046086 | 17.78° C | 90% | 1016 hPa | 0 mm | 0.45 m/s, 221° | - | - |
| 1778045786 | 17.78° C | 90% | 1015.9 hPa | 0 mm | 0.45 m/s, 76° | - | - |
| 1778045556 | 17.78° C | 89% | 1015.8 hPa | 0 mm | 0.45 m/s, 119° | - | - |
| 1778045486 | 17.78° C | 89% | 1015.8 hPa | 0 mm | 0.45 m/s, 119° | - | - |
| 1778045276 | 17.78° C | 88% | 1016.1 hPa | 0 mm | 0 m/s | - | - |
| 1778045256 | 17.78° C | 89% | 1016 hPa | 0 mm | 0.45 m/s, 137° | - | - |
| 1778045186 | 17.78° C | 89% | 1016 hPa | 0 mm | 0.45 m/s, 137° | - | - |
| 1778044886 | 17.78° C | 88% | 1016.1 hPa | 0 mm | 0 m/s | - | - |
| 1778044586 | 17.78° C | 88% | 1016.1 hPa | 0 mm | 0 m/s | - | - |
| 1778044286 | 18.33° C | 88% | 1016.1 hPa | 0 mm | 0.45 m/s, 51° | - | - |
| 1778043986 | 18.33° C | 88% | 1016 hPa | 0 mm | 0.45 m/s, 41° | - | - |
| 1778043774 | 18.33° C | 87% | 1016.1 hPa | 0 mm | 0.45 m/s, 34° | - | - |
| 1778043686 | 18.33° C | 87% | 1016.1 hPa | 0 mm | 0.45 m/s, 67° | - | - |
| 1778043386 | 18.33° C | 87% | 1016.1 hPa | 0 mm | 0.45 m/s, 34° | - | - |
| 1778043091 | 18.33° C | 86% | 1016.1 hPa | 0 mm | 0.45 m/s, 51° | - | - |
| 1778043086 | 18.33° C | 87% | 1016 hPa | 0 mm | 0.45 m/s, 68° | - | - |
| 1778042786 | 18.33° C | 86% | 1016.1 hPa | 0 mm | 0.45 m/s, 51° | - | - |
| 1778042486 | 18.33° C | 86% | 1016.1 hPa | 0 mm | 0.89 m/s, 51° | - | - |
| 1778042186 | 18.33° C | 86% | 1016 hPa | 0 mm | 0.89 m/s, 41° | - | - |
| 1778041886 | 18.33° C | 86% | 1016.1 hPa | 0 mm | 0.89 m/s, 78° | - | - |
| 1778041586 | 18.33° C | 85% | 1015.9 hPa | 0 mm | 0.89 m/s, 83° | - | - |
| 1778041286 | 18.89° C | 85% | 1016.1 hPa | 0 mm | 0.45 m/s, 59° | - | - |
| 1778040987 | 18.89° C | 85% | 1016.3 hPa | 0 mm | 0.89 m/s, 26° | - | - |
| 1778040951 | 18.89° C | 85% | 1016.1 hPa | 0 mm | 0.89 m/s, 76° | - | - |
| 1778040686 | 18.89° C | 85% | 1016.1 hPa | 0 mm | 0.89 m/s, 76° | - | - |
* Rain latest hour (hover to see other rain measurements)
** Current wind speed in m/s (hover to see current wind gust speed)